Content
SEND FEEDBACK

Daily
Averages
Monthly
Summary
France

AVIGNON, FRANCE


Home > Europe > France
Elevation: 187 feet     Latitude: 44 00N     Longitude: 004 45E

WEATHER
 
SELECT A DAY
Number of Records: 166,922;   Date Range: 5/17/04 - 7/11/14
 
SHARE

PRINT THIS DATA

[ ← Previous Day ]
WEATHER ALMANAC - FEBRUARY 6, 2013
[ Next Day → ]
[ °C ]   °F
Weather ElementAverageHighLow
Temperature41.7 °F53.6 °F (2:30 pm)30.2 °F (6:30 am)
Dewpoint32 °F37.4 °F (8:00 pm)24.8 °F (6:00 am)
Humidity69.9 %93 % (7:00 am)44 % (3:30 pm)
Barometer29.69 in29.83 in (12:30 am)29.56 in (4:00 pm)
Wind Speed6.9 mph17.3 mph (10:00 pm)
Weather ElementAverage
Visibility6.2 mi
Wind DirectionSW (224.8 °)

Weather ElementTotal
Precipitation---
Heating Degree Days23.1 (Base 65)
Averaged from 46 records on February 6, 2013
WEATHER CONDITIONS BREAKOUT
WIND DIRECTION BREAKOUT
WEATHER BY HOUR - FEBRUARY 6, 2013
[ °C ]   °F
Local TimeTemperatureDewpointHumidityBarometerVisibilityWind DirectionWind SpeedGust SpeedPrecipitationEventsConditions
12:30 AM42.8 °F35.6 °F76 %29.83 in6.2 miNW (310°)8.1 mphOvercast
1:00 AM42.8 °F35.6 °F76 %29.83 in6.2 miNW (310°)5.8 mphOvercast
1:30 AM42.8 °F33.8 °F70 %29.80 in6.2 miWNW (290°)6.9 mphOvercast
2:00 AM42.8 °F32.0 °F66 %29.80 in6.2 miWNW (300°)9.2 mphScattered Clouds
2:30 AM42.8 °F30.2 °F61 %29.77 in6.2 miNW (310°)10.4 mph
3:00 AM41.0 °F30.2 °F65 %29.77 in6.2 miNW (320°)10.4 mph
3:30 AM37.4 °F28.4 °F70 %29.77 in6.2 miNNW (340°)6.9 mph
4:00 AM37.4 °F28.4 °F70 %29.77 in6.2 miNNW (340°)4.6 mph
4:30 AM37.4 °F30.2 °F75 %29.74 in6.2 miNorth (10°)2.3 mph
5:00 AM32.0 °F26.6 °F80 %29.74 in6.2 miCalm
5:30 AM32.0 °F28.4 °F87 %29.74 in6.2 miWNW (300°)5.8 mph
6:00 AM32.0 °F24.8 °F75 %29.74 in6.2 miCalm
6:30 AM30.2 °F26.6 °F86 %29.71 in6.2 miSSE (150°)3.5 mph
7:00 AM30.2 °F28.4 °F93 %29.71 in6.2 miCalm
7:30 AM30.2 °F28.4 °F93 %29.74 in6.2 miEast (90°)1.2 mph
8:00 AM32.0 °F28.4 °F87 %29.71 in6.2 miVariable2.3 mph
8:30 AM32.0 °F30.2 °F93 %29.71 in6.2 miSSE (150°)5.8 mph
9:00 AM33.8 °F30.2 °F87 %29.71 in6.2 miVariable2.3 mphMostly Cloudy
9:30 AM37.4 °F32.0 °F81 %29.71 in6.2 miVariable2.3 mphOvercast
10:00 AM39.2 °F30.2 °F70 %29.71 in6.2 miCalmMostly Cloudy
10:30 AM41.0 °F32.0 °F70 %29.68 in6.2 miSouth (170°)3.5 mphOvercast
11:00 AM44.6 °F33.8 °F66 %29.68 in6.2 miSW (220°)5.8 mphOvercast
11:30 AM46.4 °F33.8 °F62 %29.68 in6.2 miWSW (250°)5.8 mphMostly Cloudy
12:00 PM48.2 °F33.8 °F58 %29.65 in6.2 miNW (310°)4.6 mph
12:30 PM48.2 °F33.8 °F58 %29.65 in6.2 miWest (280°)4.6 mph
1:00 PM50.0 °F35.6 °F58 %29.65 in6.2 miWest (260°)8.1 mph
1:30 PM51.8 °F33.8 °F50 %29.62 in6.2 miWSW (250°)8.1 mph
2:30 PM53.6 °F33.8 °F47 %29.59 in6.2 miNW (310°)6.9 mphMostly Cloudy
3:00 PM51.8 °F32.0 °F47 %29.59 in6.2 miWest (280°)8.1 mphOvercast
3:30 PM51.8 °F30.2 °F44 %29.59 in6.2 miWest (270°)9.2 mphOvercast
4:00 PM51.8 °F32.0 °F47 %29.56 in6.2 miWest (280°)8.1 mphOvercast
4:30 PM50.0 °F32.0 °F50 %29.56 in6.2 miNNE (30°)5.8 mph
5:00 PM50.0 °F33.8 °F54 %29.59 in6.2 miNorth (360°)5.8 mph
5:30 PM50.0 °F33.8 °F54 %29.59 in6.2 miNorth (360°)4.6 mphMostly Cloudy
6:00 PM48.2 °F33.8 °F58 %29.59 in6.2 miNNE (30°)11.5 mphMostly Cloudy
6:30 PM42.8 °F33.8 °F70 %29.62 in6.2 miNNW (340°)5.8 mphMostly Cloudy
7:00 PM41.0 °F33.8 °F76 %29.62 in6.2 miVariable3.5 mphPartly Cloudy
7:30 PM41.0 °F35.6 °F81 %29.62 in6.2 miNorth (350°)5.8 mphOvercast
8:00 PM42.8 °F37.4 °F81 %29.65 in6.2 miNorth (350°)12.7 mphMostly Cloudy
8:30 PM41.0 °F35.6 °F81 %29.65 in6.2 miNorth (350°)10.4 mphScattered Clouds
9:00 PM41.0 °F35.6 °F81 %29.65 in6.2 miNNW (340°)11.5 mphPartly Cloudy
9:30 PM41.0 °F35.6 °F81 %29.68 in6.2 miNNW (340°)16.1 mph
10:00 PM41.0 °F33.8 °F76 %29.71 in6.2 miNNW (340°)17.3 mph
10:30 PM41.0 °F33.8 °F76 %29.71 in6.2 miNNW (340°)16.1 mphMostly Cloudy
11:00 PM41.0 °F32.0 °F70 %29.71 in6.2 miNorth (350°)15.0 mph
11:30 PM41.0 °F26.6 °F57 %29.71 in6.2 miNorth (360°)15.0 mph
Hourly data recorded from LFMV, located miles away from Avignon, France







STORIES FROM OUR PARTNERS